Location: Allos
(44.2333°N, 6.6333°E)
Time: 05:35:57
(UTC+00:00)

FengYun 1-2 T - Pass Details

Date: 01 December 2020
Orbit: 847 x 880 km, 98.7° (Epoch: 27 January)

Event Time Altitude Azimuth Distance (km) Brightness Sun altitude
Rises 16:47:53 0° 151° (SSE) 3,423 7.3 -9.2°
Reaches altitude 10° 16:50:17 10° 147° (SSE) 2,485 6.5 -9.6°
Maximum altitude 16:55:40 56° 71° (ENE) 1,006 4.3 -10.5°
Drops below altitude 10° 17:01:03 10° 354° (N) 2,485 6.5 -11.4°
Sets 17:03:27 0° 350° (N) 3,423 7.3 -11.8°
